Weather in Artemivka

Ukraine / Kharkiv Region     49°55′38″N   37°04′49″E
temp.,
°C
wind,
m/s
gust,
m/s
humid.,
%
clouds,
%
prec.,
mm/h
press.,
hPa
HPBL,
m
17 june, thu
thu1700:00+17ne348977 0.0 101461
03:00+17nne489583 0.0 1014145
06:00+18ne5129030 0.0 1014344
09:00+22ene7108098 0.0 1015667
12:00+25ene7969100 0.0 10161343
15:00+24ene7107597 0.9 10161278
18:00+24ne711785 1.3 1016970
21:00+21ne8168559 1.8 1016499
18 june, fri
fri1800:00+20ene81689100 0.3 1018650
03:00+17ene61490100 1.4 1018431
06:00+17ene61390100 0.0 1020401
09:00+20e7107521 0.0 1021699
12:00+23e786573 0.0 10211022
15:00+24e786045 0.0 10211539
18:00+23ene5872100 0.0 1021990
21:00+20ene4118268 0.1 1022317
19 june, sat
sat1900:00+18ene613805 0.0 1023390
03:00+17ene6138895 0.0 1022371
06:00+16ene6148632 0.0 1022430
09:00+20e812710 0.0 1022644
12:00+23e811622 0.1 1022998
15:00+24e810620 0.1 10211191
18:00+24e69720 0.0 1021931
21:00+19ene411850 0.0 1022290
20 june, sun
sun2000:00+17e513785 0.0 1021294
03:00+16ene5137834 0.0 1021262
06:00+16ene513795 0.0 1021297
09:00+20e71264100 0.0 1020503
12:00+24e81156100 0.0 1020807
15:00+24e71165100 0.0 1018887
18:00+23ene51072100 0.0 1018563
21:00+21ene71477100 0.0 1017406
21 june, mon
mon2100:00+20ene7166883 0.0 1016400
03:00+19e61466100 0.0 1016336
06:00+18e5127990 0.0 1016239
09:00+23e6116475 0.0 1016432
12:00+27ese7115173 0.0 1016858
15:00+28ese711540 0.0 10151226
18:00+26e6126121 0.0 1015620
21:00+21ene5138024 0.0 1015227